Flag for Argentina

Past Weather in Bahía Blanca, Buenos Aires, Argentina — Yesterday and Last 2 Weeks

Now
55 °F

Drizzle. Low clouds.


Feels Like: 51 °F
Forecast: 79 / 50 °F
Wind: 16 mph from East

Location: Mar Del Plata Aerodrome
Current Time: Oct 22, 2020 at 11:43:29 pm
Latest Report: Oct 22, 2020 at 11:00 pm
Visibility: 1 mi
Pressure30.15 "Hg
Humidity: 94%
Dew Point: 54 °F
Location of Bahía BlancaLocation

Past Weather in Bahía Blanca — Graph

°F

Bahía Blanca Temperature Yesterday

Maximum temperature yesterday: 55 °F (at 10:00 am)
Minimum temperature yesterday: 36 °F (at 5:00 am)
Average temperature yesterday: 49 °F

High & Low Weather Summary for the Past Weeks

 TemperatureHumidityPressure
High82 °F (Oct 17, 3:00 pm)100% (Oct 10, 12:00 am)30.48 "Hg (Oct 10, 12:00 am)
Low34 °F (Oct 10, 4:00 am)34% (Oct 20, 11:00 am)29.68 "Hg (Oct 18, 4:00 pm)
Average56 °F79%30.06 "Hg
* Reported Oct 7 10:00 pm — Oct 22 10:00 pm, Bahía Blanca. Weather by CustomWeather, © 2020

Note: Actual official high and low records may vary slightly from our data, if they occured in-between our weather recording intervals... More about our weather records

Bahía Blanca Weather History for the Previous 24 Hours

Scroll right to see more
 ConditionsComfort  
Time TempWeatherWind HumidityBarometerVisibility
10:00 pm
Thu, Oct 22
55 °FDrizzle. Low clouds.14 mph94%30.18 "Hg2 mi
9:00 pm55 °FLow clouds.12 mph94%30.18 "HgN/A
8:00 pm54 °FLight rain. Overcast.12 mph100%30.18 "Hg4 mi
7:00 pm54 °FRain. Cloudy.15 mph100%30.18 "Hg2 mi
6:20 pm54 °FRain. Mostly cloudy.18 mph100%30.18 "Hg1 mi
6:00 pm54 °FRain. More clouds than sun.14 mph100%30.18 "Hg4 mi
5:00 pm54 °FDrizzle. Low clouds.15 mph100%30.21 "Hg1 mi
4:00 pm54 °FDrizzle. Low clouds.12 mph100%30.21 "Hg1 mi
3:00 pm55 °FDrizzle. Low clouds.16 mph94%30.24 "Hg1 mi
2:00 pm55 °FDrizzle. Low clouds.10 mph94%30.24 "Hg1 mi
1:00 pm57 °FMore clouds than sun.14 mph82%30.27 "HgN/A
12:00 pm57 °FMostly cloudy.17 mph82%30.27 "HgN/A
11:00 am57 °FCloudy.17 mph77%30.30 "HgN/A
10:00 am57 °FCloudy.18 mph82%30.33 "HgN/A
9:00 am55 °FLight rain. More clouds than sun.18 mph88%30.33 "Hg6 mi
8:00 am55 °FMore clouds than sun.10 mph82%30.36 "HgN/A
7:00 am55 °FSunny.12 mph82%30.33 "Hg10 mi
6:00 am55 °FSunny.9 mph82%30.33 "Hg10 mi
5:00 am54 °FClear.10 mph94%30.33 "Hg10 mi
4:00 am54 °FClear.10 mph88%30.33 "Hg10 mi
3:00 am55 °FClear.13 mph77%30.33 "Hg10 mi
1:00 am54 °FClear.14 mph82%30.36 "Hg10 mi
12:00 am54 °FClear.14 mph77%30.36 "Hg10 mi
11:00 pm
Wed, Oct 21
54 °FClear.16 mph77%30.36 "Hg10 mi
Weather by CustomWeather, © 2020

See weather overview